Lake Charles, LA

3:41 AM CST on December 04, 2016 (GMT -0600)
Chennault International

Weather History for KCWF - November, 2012

Change the Weather History Date:

Saturday, November 17, 2012

  Actual Average Record
Temperature  
Mean Temperature 56 °F -  
Max Temperature 69 °F 69 °F 82 °F (2003)
Min Temperature 42 °F 53 °F 35 °F (2005)
Degree Days  
Heating Degree Days 10    
Growing Degree Days 6 (Base 50)    
Moisture  
Dew Point 39 °F    
Average Humidity 69    
Maximum Humidity 93    
Minimum Humidity 27    
Precipitation  
Precipitation 0.00 in - - ()
Sea Level Pressure  
Sea Level Pressure 30.33 in    
Wind  
Wind Speed 5 mph (NNE)    
Max Wind Speed 8 mph    
Max Gust Speed -    
Visibility 10 miles    
Events      
Averages and records for this station are not official NWS values.
T = Trace of Precipitation, MM = Missing Value Source: NWS Daily Summary

Daily Weather History Graph

Daily Weather History Graph

Search for Another Location

Airport or City:

Trip Planner

Search our weather history database for the weather conditions in past years. The results will help you decide how hot, cold, wet, or windy it might be!

Date:

Astronomy

Nov. 17, 2012 Rise Set
Actual Time 6:40 AM CST 5:14 PM CST
Civil Twilight 6:14 AM CST 5:40 PM CST
Nautical Twilight 5:45 AM CST 6:09 PM CST
Astronomical Twilight 5:16 AM CST 6:38 PM CST
Moon 10:25 AM CST (11/17) 9:24 PM CST (11/17)
Length of Visible Light 11h 25m
Length of Day
10h 34m
Waxing Crescent, 20% of the Moon is Illuminated
Nov 17
Waxing Crescent
Nov 20
First Quarter
Nov 28
Full
Dec 6
Last Quarter
Dec 13
New

Hourly Weather History & Observations

Time (CST) Temp. Windchill Dew Point Humidity Pressure Visibility Wind Dir Wind Speed Gust Speed Precip Events Conditions
12:15 AM 46.4 °F 43.5 °F 38.1 °F 73% 30.34 in 10.0 mi North 5.8 mph - N/A   Clear
12:35 AM 46.4 °F 44.3 °F 37.9 °F 72% 30.34 in 10.0 mi North 4.6 mph - N/A   Clear
12:55 AM 46.4 °F 43.5 °F 38.1 °F 73% 30.34 in 10.0 mi NNE 5.8 mph - N/A   Clear
1:15 AM 45.7 °F 42.7 °F 37.8 °F 74% 30.34 in 10.0 mi North 5.8 mph - N/A   Clear
1:35 AM 45.3 °F 43.0 °F 37.6 °F 74% 30.34 in 10.0 mi North 4.6 mph - N/A   Clear
1:55 AM 44.8 °F 42.4 °F 37.4 °F 75% 30.34 in 10.0 mi NNE 4.6 mph - N/A   Clear
2:15 AM 44.6 °F 42.2 °F 37.0 °F 75% 30.34 in 10.0 mi North 4.6 mph - N/A   Clear
2:35 AM 44.4 °F 41.2 °F 37.0 °F 75% 30.33 in 10.0 mi NNE 5.8 mph - N/A   Clear
2:55 AM 44.2 °F 41.8 °F 36.9 °F 75% 30.34 in 10.0 mi NNE 4.6 mph - N/A   Clear
3:15 AM 43.9 °F 40.5 °F 37.0 °F 77% 30.33 in 10.0 mi North 5.8 mph - N/A   Clear
3:35 AM 43.7 °F 40.3 °F 36.9 °F 77% 30.33 in 10.0 mi NNE 5.8 mph - N/A   Clear
3:55 AM 43.7 °F 39.7 °F 36.9 °F 77% 30.32 in 10.0 mi NNE 6.9 mph - N/A   Clear
4:15 AM 43.7 °F 39.1 °F 36.7 °F 76% 30.32 in 10.0 mi NNE 8.1 mph - N/A   Clear
4:35 AM 43.3 °F 39.2 °F 36.5 °F 77% 30.32 in 10.0 mi NNE 6.9 mph - N/A   Clear
4:55 AM 43.5 °F 40.1 °F 36.5 °F 76% 30.32 in 10.0 mi NNE 5.8 mph - N/A   Clear
6:00 AM 42.8 °F 39.3 °F 35.6 °F 76% 30.33 in 10.0 mi NNE 5.8 mph - N/A   Clear
6:50 AM 42.8 °F 40.1 °F 35.6 °F 76% 30.36 in 10.0 mi NE 4.6 mph - N/A   Clear
7:50 AM 46.4 °F 42.9 °F 37.4 °F 71% 30.37 in 10.0 mi NE 6.9 mph - N/A   Clear
8:50 AM 51.8 °F - 39.2 °F 62% 30.38 in 10.0 mi NE 3.5 mph - N/A   Clear
9:50 AM 57.2 °F - 39.2 °F 51% 30.39 in 10.0 mi NE 5.8 mph - N/A   Clear
10:50 AM 62.6 °F - 37.4 °F 39% 30.39 in 10.0 mi ENE 4.6 mph - N/A   Clear
11:50 AM 64.4 °F - 35.6 °F 34% 30.36 in 10.0 mi NNE 8.1 mph - N/A   Clear
12:50 PM 66.2 °F - 33.8 °F 30% 30.34 in 10.0 mi NNE 5.8 mph - N/A   Clear
1:50 PM 69.8 °F - 33.8 °F 27% 30.31 in 10.0 mi NE 6.9 mph - N/A   Clear
2:50 PM 69.8 °F - 35.6 °F 28% 30.29 in 10.0 mi NNE 6.9 mph - N/A   Clear
3:50 PM 68.0 °F - 33.8 °F 28% 30.30 in 10.0 mi NNE 8.1 mph - N/A   Clear
4:50 PM 66.2 °F - 37.4 °F 35% 30.30 in 10.0 mi NNE 5.8 mph - N/A   Clear
5:50 PM 60.8 °F - 39.2 °F 45% 30.30 in 10.0 mi NNE 4.6 mph - N/A   Clear
6:50 PM 51.8 °F - 44.6 °F 76% 30.31 in 10.0 mi Calm Calm - N/A   Clear
7:50 PM 50.0 °F - 42.8 °F 76% 30.32 in 10.0 mi Calm Calm - N/A   Clear
8:50 PM 46.4 °F - 42.8 °F 87% 30.33 in 10.0 mi Calm Calm - N/A   Clear
9:15 PM 48.0 °F - 42.3 °F 80% 30.33 in 10.0 mi Calm Calm - N/A   Clear
9:35 PM 46.6 °F - 42.1 °F 84% 30.33 in 10.0 mi Calm Calm - N/A   Clear
9:50 PM 46.4 °F - 42.8 °F 87% 30.33 in 10.0 mi Calm Calm - N/A   Clear
9:55 PM 46.4 °F - 42.4 °F 86% 30.33 in 10.0 mi Calm Calm - N/A   Clear
10:15 PM 45.0 °F - 41.5 °F 88% 30.33 in 10.0 mi Calm Calm - N/A   Clear
10:35 PM 45.9 °F - 42.4 °F 88% 30.33 in 10.0 mi Calm Calm - N/A   Clear
10:55 PM 44.8 °F - 42.8 °F 93% 30.33 in 10.0 mi Calm Calm - N/A   Clear
11:15 PM 45.1 °F 43.7 °F 42.1 °F 89% 30.33 in 10.0 mi NE 3.5 mph - N/A   Clear
11:35 PM 45.3 °F 44.0 °F 39.4 °F 80% 30.33 in 10.0 mi NE 3.5 mph - N/A   Clear
11:55 PM 46.6 °F - 39.4 °F 76% 30.33 in 10.0 mi Calm Calm - N/A   Clear